AirNav   GEt a FREE Bose Revolve Bluetooth Speaker
 
 871 users online  

L54 Agua Caliente Springs Airport
Agua Caliente Springs, California, USA

GOING TO AGUA CALIENTE SPRINGS?


FAA INFORMATION EFFECTIVE 06 DECEMBER 2018

Location

FAA Identifier: L54
Lat/Long: 32-57-20.5000N / 116-17-41.0000W
32-57.341667N / 116-17.683333W
32.9556944 / -116.2947222
(estimated)
Elevation: 1220 ft. / 372 m (estimated)
Variation: 13E (1985)
From city: 1 mile NE of AGUA CALIENTE SPRINGS, CA
Time zone: UTC -8 (UTC -7 during Daylight Saving Time)
Zip code: 92036

Airport Operations

Airport use: Open to the public
Activation date: 07/1960
Control tower: no
ARTCC: LOS ANGELES CENTER
FSS: SAN DIEGO FLIGHT SERVICE STATION
NOTAMs facility: SAN (NOTAM-D service available)
Attendance: UNATNDD
Pattern altitude: 2020 ft. MSL
Wind indicator: yes
Segmented circle: yes

Airport Communications

CTAF: 122.9
WX AWOS-3P at L08 (18 nm N): 126.575 (760-767-3308)

Nearby radio navigation aids

VOR radial/distance  VOR name  Freq  Var
JLIr112/18.4JULIAN VORTAC114.0015E

Airport Services

Parking: tiedowns
Bottled oxygen: NONE
Bulk oxygen: NONE

Runway Information

Runway 11/29

Dimensions: 2500 x 60 ft. / 762 x 18 m
Surface: asphalt, in excellent condition
Weight bearing capacity: 
Single wheel: 12.0
Operational restrictions: CLSD SS-SR; NOT LGTD.
RUNWAY 11  RUNWAY 29
Latitude: 32-57.439708N32-57.244717N
Longitude: 116-17.898627W116-17.467657W
Gradient: 1.0%1.0%
Traffic pattern: leftright
HILL 0.5 MI W OF AP.
Runway heading: 105 magnetic, 118 true285 magnetic, 298 true
Markings: basic, in good conditionbasic, in good condition
Runway end identifier lights: nono
Obstructions: 460 ft. hill, 2500 ft. from runway, 5:1 slope to clearnone

Airport Ownership and Management from official FAA records

Ownership: Publicly-owned
Owner: COUNTY OF SAN DIEGO
1960 JOE CROSSON DRIVE
EL CAJON, CA 92020-1142
Phone 619-956-4800
Manager: MS. CATHE JOHNSON
SAN DIEGO COUNTY AIRPORTS, 1960 JOE CROSSON DRIVE
EL CAJON, CA 92020
Phone (619) 956-4800
AMGRS OFFICE AT GILLESPIE FIELD.

Airport Operational Statistics

Aircraft operations: avg 85/week *
99% transient general aviation
1% military
* for 12-month period ending 31 December 2017

Additional Remarks

HAZARDOUS DURING RAINS OR FLASH FLOODS.
OBSTRN PART 77-MTNS S & W OF RWY, DIRT BERM, DITCH, SAND BOTH SIDES OF RWY.
ACFT TIED DOWN WITHIN PRIMARY SFC.
WIND PERMITTING USE OF RY 29 FOR LANDING AND RY 11 FOR DEPARTURE RECOMMENDED DUE TO 460 FT HILL 1/2 MILE WEST OF AIRPORT
RWY 11/29 CLSD SS-SR, NOT LGTD.
ACFT SHALL SELF ANNC ON CTAF PRIOR TO LDG OR DEP.
PPR FOR ALL MIL ACFT, COPTER SKID/RUN-ON LDG PROHIBITED; CTC AMGR.

Instrument Procedures

There are no published instrument procedures at L54.

Some nearby airports with instrument procedures:

L08 - Borrego Valley Airport (18 nm N)
KRNM - Ramona Airport (32 nm W)
KNJK - El Centro NAF Airport (32 nm E)
KSEE - Gillespie Field Airport (35 nm W)
KIPL - Imperial County Airport (37 nm E)
 
Loc | Ops | Rwys | IFR | FBO | Links
Com | Nav | Svcs | Stats | Notes


 
Area around L54 (Agua Caliente Springs Airport)
 
Road maps at: MapQuest Bing Google
 
Aerial photo
WARNING: Photo may not be current or correct
Aerial photo of L54 (Agua Caliente Springs Airport)
Do you have a better or more recent aerial photo of Agua Caliente Springs Airport that you would like to share? If so, please send us your photo.

 
Sectional chart

 
Airport distance calculator
Flying to Agua Caliente Springs Airport? Find the distance to fly.

From to L54

Sunrise and sunset
Times for 12-Dec-2018
 Local
(UTC-8)
 Zulu
(UTC)
Morning civil twilight06:1214:12
Sunrise06:4014:40
Sunset16:3800:38
Evening civil twilight17:0601:06

Current date and time
Zulu (UTC)  13-Dec-2018 01:54:30
Local (UTC-8)  12-Dec-2018 17:54:30
 
METAR
KL08 
18nm N 
130135Z AUTO 00000KT 10SM CLR 15/06 A3010 RMK AO2
KCZZ 
21nm SW 
130052Z AUTO 00000KT 12/06 A3010 RMK AO1 SLP188 T01170061
KRNM 
32nm W 
130053Z 00000KT 10SM CLR 13/09 A3012 RMK AO2 SLP198 T01280089
KNJK 
33nm E 
130056Z 33004KT 10SM FEW250 18/07 A3009 RMK AO2 SLP206 T01830072 $
KSEE 
35nm W 
130047Z VRB04KT 10SM SKC 17/11 A3012
TAF
KNJK 
33nm E 
1223/1323 VRB06KT 9999 FEW250 QNH3004INS TEMPO 1306/1312 25008KT T06/1313Z T21/1323Z FS30130
KIPL 
37nm E 
121720Z 1218/1318 VRB05KT P6SM SKC FM121900 10005KT P6SM FEW250 FM130200 27005KT P6SM FEW250
NOTAMs
Click for the latest NOTAMs
NOTAMs are issued by the DoD/FAA and will open in a separate window not controlled by AirNav.

 

 
 

Things to do: Attractions on or near the airport

  
 Business Name 
 
 Contact 
 
 Services / Description 
 
Distance
 
Comments
  
Agua Caliente County Park no information available

If you are affiliated with Agua Caliente County Park and would like to show here your services, contact info, web link, logo, and more, click here
0.2 miles  
   1 read write
 

Would you like to see your business listed on this page?

 If your business provides an interesting product or service to pilots, flight crews, aircraft, or users of the Agua Caliente Springs Airport, you should consider listing it here.  To start the listing process, click on the button below
 
Add a business
 

Other Pages about Agua Caliente Springs Airport

www.co.san-diego.ca.us/...
 
Update a link
 
Copyright © AirNav, LLC. All rights reserved. Privacy Policy  Contact